Theta_e
308 307 307 307 308 308 308 308 307 307 306 306 306 306 306 306 307 307 308 309 308 308 309 309 308 308 307 307 307 307 307 306 303 305 307 309 308 308 309 310 309 310 311
306 306 306 306 306 306 305 305 305 305 305 304 303 302 303 303 304 303 303 304 303 303 304 304 303 304 304 305 305 304 304 305 302 299 302 302 302 304 304 304 305 306 307
305 305 305 304 304 304 303 303 302 302 301 301 300 300 300 301 301 301 301 300 300 301 302 302 302 303 302 303 303 302 302 301 300 298 297 300 300 302 301 302 302 302 303
304 304 304 304 303 303 302 301 300 299 299 299 299 299 299 299 299 299 298 298 299 300 302 301 301 301 300 300 298 297 297 296 295 295 294 294 296 297 297 295 295 297 298
303 303 303 303 303 301 300 299 299 298 297 298 297 297 298 297 297 298 298 298 298 298 299 299 299 295 289 293 294 295 294 294 293 292 291 291 292 292 292 294 293 294 295
302 302 302 302 300 299 299 298 297 296 296 295 295 295 295 294 294 293 294 295 295 295 295 296 296 291 293 293 293 293 294 293 292 291 290 289 290 292 293 292 291 290 288
301 301 301 300 298 298 297 295 294 294 294 293 293 293 293 294 293 293 291 292 292 293 293 293 293 293 291 294 294 294 293 293 294 293 290 290 290 292 292 290 290 289 289
300 300 299 298 297 295 294 293 293 293 291 291 292 292 292 292 292 292 291 292 292 292 293 293 292 292 293 292 293 292 292 293 294 293 293 292 292 293 292 291 290 289 289
297 297 297 296 294 293 292 291 292 291 290 290 291 291 290 291 291 291 290 290 291 291 292 293 292 292 291 292 290 289 289 290 292 293 293 294 294 294 292 290 287 286 285
295 295 296 295 294 293 292 290 289 289 288 287 287 289 288 289 290 290 290 290 289 289 290 290 288 288 290 291 289 289 287 287 289 289 290 291 291 290 290 290 288 285 285
293 292 292 292 290 292 290 288 287 287 285 286 285 286 287 288 289 290 291 289 289 288 288 288 289 290 290 291 291 289 288 289 288 288 287 287 287 287 288 289 288 287 284
291 290 288 287 287 287 286 285 285 285 284 284 285 285 286 287 287 289 290 290 291 288 287 287 288 290 290 290 289 289 290 290 287 286 285 285 285 285 286 286 286 286 286
286 284 285 284 284 285 285 284 284 284 284 284 284 284 285 286 287 289 290 290 290 288 287 288 289 289 289 287 288 289 287 286 285 283 283 283 284 285 285 285 285 285 284
284 282 282 282 283 283 283 284 284 284 284 283 283 283 284 284 285 286 286 287 286 287 287 287 287 288 288 287 286 286 285 285 284 282 282 283 284 283 283 283 281 281 280
281 281 282 282 282 282 282 282 282 283 283 282 282 282 281 281 283 285 284 285 286 286 285 285 285 284 284 283 283 284 283 283 281 282 281 280 281 281 281 281 279 278 277
280 280 280 280 280 279 279 279 280 280 280 280 281 281 281 283 284 285 285 285 285 285 283 283 282 281 281 280 279 279 280 280 280 280 279 280 279 279 279 278 277 275 275
278 277 276 276 277 277 277 277 276 279 279 279 279 280 280 282 283 282 282 282 282 283 281 279 278 278 278 277 277 277 277 278 279 279 279 278 278 278 277 276 274 274 274
271 269 275 275 275 275 275 275 275 274 274 276 278 279 280 280 280 280 279 278 277 278 277 276 275 275 275 276 276 276 277 277 277 277 277 277 276 276 275 273 271 271 271
272 273 272 273 272 271 271 272 273 273 273 274 276 278 278 277 278 277 276 272 271 272 273 273 273 273 273 273 274 276 276 277 276 275 276 276 275 274 271 271 271 270 270
270 268 268 271 271 271 272 271 272 272 272 273 274 274 273 275 273 271 271 270 270 269 270 270 271 271 271 271 272 273 274 275 274 274 274 274 274 273 271 270 269 269 269
270 270 269 269 269 270 270 270 271 271 271 272 272 272 274 270 269 269 268 268 268 268 268 269 270 269 269 269 269 269 270 271 271 272 273 272 272 271 272 271 270 270 270
269 269 269 269 269 269 270 270 270 270 270 270 270 269 271 269 268 268 268 268 268 268 268 268 268 268 268 268 268 268 268 268 268 269 270 271 271 271 271 270 269 269 269
268 268 268 268 268 268 268 269 268 269 268 268 268 268 268 268 267 267 267 267 267 267 267 267 267 267 269 270 270 269 267 267 268 269 268 270 269 269 268 267 267 267 267
268 268 268 268 268 268 268 267 266 265 267 267 267 267 267 267 267 266 266 266 266 266 266 265 266 266 267 268 270 270 269 269 268 269 268 268 267 267 266 264 266 266 266
267 267 268 268 267 267 266 267 267 266 267 267 267 266 267 266 265 266 266 264 262 263 263 262 263 265 266 267 268 270 271 269 268 269 269 267 267 266 264 264 266 265 266
266 266 266 266 266 266 266 266 266 266 266 266 266 266 265 265 265 265 264 262 262 262 261 262 263 263 264 266 267 270 272 272 269 268 269 268 267 266 266 264 264 264 265
Wind_Speed
4 5 6 4 4 5 5 5 4 3 3 3 1 1 1 2 3 4 5 5 6 6 6 7 8 7 6 6 6 6 7 7 11 14 8 10 11 13 12 12 12 15 14
4 5 5 5 4 4 4 5 4 3 2 1 0 1 2 3 3 5 5 5 6 7 6 7 8 5 7 7 6 8 7 7 9 15 12 10 12 12 13 15 12 13 14
5 5 5 5 5 5 5 4 4 3 2 2 2 3 3 3 4 5 6 6 7 7 7 8 8 7 7 6 7 7 7 8 9 10 14 11 12 10 12 12 13 15 13
6 6 6 7 7 6 5 5 4 4 3 3 3 4 4 4 4 5 5 6 7 7 7 7 8 8 7 7 7 9 10 10 10 10 11 13 10 10 11 12 13 11 14
7 7 8 6 5 5 5 5 4 5 4 4 3 4 4 4 4 5 5 6 7 7 7 7 7 6 7 8 8 10 12 10 10 10 12 14 12 12 13 11 15 14 16
9 9 7 6 5 6 6 5 5 5 5 4 4 4 4 3 3 4 6 6 7 7 7 7 6 6 7 11 12 14 12 11 12 11 14 14 19 14 14 12 13 13 19
10 9 8 8 8 8 6 6 6 6 5 4 3 3 4 5 5 5 6 6 7 7 7 7 7 6 7 9 12 14 14 15 17 14 17 15 19 14 15 19 15 15 19
9 9 7 8 9 7 7 7 6 4 5 4 3 3 4 4 5 6 7 7 7 8 8 8 10 11 10 10 12 13 14 12 12 10 15 17 18 18 18 19 19 20 20
8 10 9 9 9 8 9 8 5 5 4 4 2 3 5 6 6 6 5 6 7 8 7 8 10 11 11 14 13 15 15 15 17 21 24 27 27 27 25 16 15 14 19
8 10 7 7 10 11 10 7 4 2 3 1 2 4 5 7 7 8 7 5 7 6 7 7 7 7 13 16 12 13 17 15 14 15 15 17 18 19 23 15 13 15 15
5 5 6 6 7 7 5 4 4 4 3 3 3 3 5 5 7 8 9 6 5 6 6 7 5 9 13 17 18 13 17 19 20 16 16 12 11 12 10 10 10 11 14
5 5 5 5 4 3 4 4 3 2 2 2 2 3 3 5 7 9 10 10 10 7 7 7 7 12 15 21 19 24 25 22 12 12 12 12 13 12 10 11 15 14 14
1 2 4 6 6 5 5 4 2 3 2 2 2 3 3 2 3 9 11 11 10 8 6 12 18 18 19 17 19 21 17 11 11 10 12 12 12 12 13 13 14 14 15
2 3 3 2 4 4 4 4 3 3 2 2 2 4 4 3 3 2 2 4 8 8 10 10 10 15 16 17 10 8 8 10 8 11 11 11 11 10 10 11 12 12 12
4 4 4 3 3 3 1 0 1 1 1 1 2 3 4 5 4 7 10 7 6 6 8 7 7 6 8 8 8 7 8 7 9 8 9 10 10 10 9 9 8 9 9
3 2 3 3 3 2 2 2 3 6 6 7 9 8 5 12 16 13 10 13 14 15 7 8 7 7 7 9 8 7 8 9 8 8 8 8 9 9 9 8 7 7 8
5 3 3 1 2 3 2 1 2 0 5 8 9 9 11 12 11 15 15 13 12 10 4 4 5 6 6 8 7 7 8 8 9 7 7 6 7 7 11 8 7 6 7
4 4 2 1 1 1 1 1 1 2 3 3 4 8 10 9 12 12 11 10 4 4 3 5 5 5 6 6 5 5 7 7 7 7 7 6 6 7 7 7 6 7 6
2 2 2 2 2 2 1 2 3 3 3 3 3 4 4 10 9 7 8 3 3 3 4 4 5 5 5 6 6 6 6 5 6 6 6 6 6 6 5 5 5 6 6
0 1 2 1 2 2 2 2 3 3 2 2 2 1 3 4 3 3 3 4 4 4 4 5 4 5 5 6 6 6 6 7 6 5 5 6 6 4 4 5 5 5 5
1 1 3 2 2 2 1 2 2 3 2 2 2 3 7 3 3 3 4 4 4 4 4 5 5 4 5 5 6 6 6 6 7 8 6 5 6 5 5 4 5 5 5
2 3 3 2 1 2 2 2 2 2 2 2 2 3 5 3 3 4 4 5 5 4 4 4 4 4 4 5 5 6 6 7 7 7 8 6 5 5 5 5 5 5 5
4 2 2 1 2 2 3 1 1 0 1 2 1 1 2 4 5 5 5 3 3 4 4 4 4 5 5 4 4 5 6 7 6 6 7 6 5 5 5 5 5 5 5
2 1 1 1 1 2 2 2 2 3 2 3 3 3 4 5 5 4 3 4 3 3 4 4 4 6 6 6 5 5 5 6 6 6 7 5 5 5 5 3 5 6 6
1 1 1 1 2 3 3 3 3 2 3 4 4 4 4 4 4 4 4 2 2 3 3 3 3 5 8 11 11 10 8 8 8 8 5 5 6 7 5 4 4 5 6
1 2 3 2 3 3 3 3 3 3 4 4 4 5 4 4 4 4 4 4 3 3 3 2 5 8 8 5 8 12 13 11 10 11 6 5 6 5 4 5 6 4 5
Wind_Direction
149 138 133 132 134 131 129 125 120 136 145 157 157 218 266 282 273 269 272 280 280 281 282 286 286 291 287 288 288 280 276 274 275 289 291 301 304 299 299 301 303 298 295
177 166 150 145 146 155 149 146 147 160 134 82 346 299 290 281 288 287 286 285 281 282 283 281 278 279 277 282 285 284 286 293 294 292 300 302 293 295 291 292 290 289 291
189 196 177 172 181 187 177 169 155 151 163 190 245 259 265 268 270 268 273 278 277 274 274 272 274 280 281 284 290 294 297 296 294 290 294 295 296 299 299 295 291 286 281
206 207 205 202 200 195 181 181 169 172 198 214 224 245 254 261 258 270 268 276 276 272 276 279 282 287 291 306 316 303 296 294 293 287 289 297 295 300 292 295 295 294 294
207 213 218 209 200 196 179 183 179 189 207 213 232 243 251 253 258 270 283 282 282 282 282 280 282 298 314 291 287 289 292 294 294 294 290 293 293 302 300 304 296 299 289
214 220 213 196 194 207 205 185 185 201 204 206 225 246 260 251 221 228 257 279 285 279 280 286 287 285 282 284 279 267 268 284 286 290 293 288 293 295 298 294 295 299 301
215 219 210 199 205 203 196 191 201 208 199 204 226 248 256 260 227 229 253 281 282 279 284 290 289 285 290 283 279 269 267 257 252 272 282 282 289 290 292 294 289 283 280
213 220 210 201 209 190 187 204 203 198 208 200 221 246 265 268 260 256 259 273 270 269 273 279 286 295 296 295 293 293 288 283 276 269 269 279 282 291 288 289 292 287 283
220 221 215 203 206 195 201 201 197 203 208 207 207 257 266 274 270 260 265 277 272 277 282 285 292 296 300 298 299 300 298 294 290 277 271 276 280 281 285 290 284 286 288
217 225 212 199 209 208 201 180 153 170 211 170 257 261 273 280 283 266 256 266 274 287 287 283 269 274 286 289 290 294 293 293 296 293 287 285 286 284 285 269 275 275 278
235 219 206 200 207 207 162 131 132 162 187 227 244 258 269 269 283 287 262 267 269 290 295 297 290 285 281 284 285 284 283 296 295 291 294 292 287 284 283 274 267 273 284
210 201 177 150 139 119 124 107 112 153 212 236 252 277 252 251 248 267 265 267 272 278 285 288 291 287 290 295 295 291 291 293 289 292 290 293 294 298 294 297 291 277 269
218 174 150 135 127 120 127 129 151 178 223 255 259 276 286 247 226 264 258 267 275 270 277 282 283 288 289 299 290 288 291 290 291 287 292 297 301 302 299 296 297 291 285
133 88 67 112 117 120 133 146 169 196 223 246 280 288 301 306 294 286 273 284 267 264 273 272 275 282 285 284 284 284 297 293 289 290 288 296 301 304 302 309 310 311 309
100 105 103 91 66 93 62 91 203 237 261 258 273 295 296 288 285 296 284 278 276 286 305 293 288 292 296 302 301 298 299 301 297 289 299 301 302 307 308 317 307 312 313
79 90 85 109 99 72 25 334 223 255 270 267 271 277 283 284 285 287 313 308 304 308 294 294 303 300 304 307 305 303 301 303 301 300 297 304 309 315 313 316 318 320 318
89 89 100 68 131 147 155 178 301 46 261 268 270 273 287 285 311 315 307 309 310 303 281 300 299 303 308 306 307 309 304 311 313 299 306 317 312 311 324 328 333 332 328
65 51 42 48 355 339 310 257 215 236 287 296 278 287 296 328 321 316 326 310 334 354 332 306 303 311 315 310 313 313 313 319 325 322 317 330 324 326 336 335 347 341 343
23 28 20 6 339 13 334 286 280 275 271 292 304 299 8 328 315 4 353 351 352 352 351 337 334 337 335 321 327 323 319 323 322 328 332 332 337 341 336 339 342 352 358
153 172 265 259 233 233 221 251 267 260 276 269 276 344 323 295 356 20 12 355 5 10 0 349 354 353 342 340 336 336 338 335 343 345 344 340 337 348 344 349 352 356 11
242 234 229 241 260 277 295 265 273 289 294 303 320 2 355 30 21 25 13 20 12 7 357 355 0 354 354 351 348 344 343 343 347 341 346 350 340 344 346 358 358 8 12
286 271 246 254 283 270 253 258 274 283 286 296 28 20 30 70 62 51 45 30 13 352 8 1 7 352 354 357 351 345 343 345 346 346 335 343 352 351 354 2 8 19 19
239 252 258 246 250 246 233 198 211 173 79 81 73 81 54 56 56 44 44 30 4 6 13 7 8 358 354 354 356 360 349 344 337 342 337 345 7 3 4 15 9 25 30
283 272 241 202 187 169 126 99 104 67 81 93 86 66 55 53 54 58 41 34 1 8 11 19 4 357 352 355 4 3 356 354 344 343 351 356 8 4 14 18 20 36 41
263 179 139 126 124 105 112 97 92 94 85 74 68 60 58 59 57 51 41 26 2 348 14 359 339 353 9 9 358 359 7 18 15 358 360 4 15 22 18 16 18 39 45
89 98 101 102 99 95 94 92 83 75 73 68 63 57 53 48 44 42 30 11 341 360 353 328 2 5 360 6 359 1 6 23 26 13 9 16 18 21 21 21 19 25 35